sat.trackr.live / text

‹ back to catalog

STARLINK-31217

NORAD 59036 · 2024-038P

PAYLOAD ACTIVE UNKNOWN

§ Identity

Operator
Country
US
Launch date
2024-02-25
Launch site
AFETR
Launch vehicle
Mass (kg)
RCS (m²)

Purposes: comms

External: N2YO · Heavens-Above · Gunter

§ Orbital elements

Epoch: 2026-05-25T05:06:39.414816Z

Period
94.27 min
Inclination
43.0005°
Eccentricity
0.0001891
Mean motion
15.27573293 rev/d
Perigee alt
481.8 km
Apogee alt
484.4 km
Semi-major
6,861.2 km
B*
3.6315e-6
RAAN
217.0544°
Arg perigee
273.8539°
Mean anomaly
86.2096°
Rev number
12,764

§ Raw data

STARLINK-312171 59036U 24038P   26145.21295619 -.00000162  00000+0  36315-5 0  99952 59036  43.0005 217.0544 0001891 273.8539  86.2096 15.27573293127641

JSON: /api/v1/satellites/59036 · /tle

For live sub-satellite position, see the globe view (requires WebGL).

§ Visibility from observer

Set your observer location to see the next 7 days of passes ≥ 10°. The values pass through the URL so the page stays shareable.

No JS? Fill the form by hand. The geolocation button needs JavaScript.